Weather in Aksenovo

Russia / Republic of Bashkortostan     53°54′49″N   54°36′08″E
temp.,
°C
wind,
m/s
gust,
m/s
humid.,
%
clouds,
%
prec.,
mm/h
press.,
hPa
HPBL,
m
8 august, mon
mon823:00+19n2266100 0.0 101913
02:00+18n2267100 0.0 101921
05:00+17nne227464 0.0 101923
08:00+20nne267091 0.0 1020175
11:00+25ne455542 0.0 1019682
14:00+27ne444731 0.0 10191865
17:00+27ne4445100 0.0 10181683
20:00+23nnw4668100 0.0 1018131
9 august, tue
tue923:00+19n3579100 0.1 101975
02:00+19n337984 0.0 101926
05:00+18nne2279100 0.0 101919
08:00+20ne2373100 0.0 1020129
11:00+24ene3359100 0.0 1019569
14:00+27ne334975 0.0 10191423
17:00+27ne4347100 0.0 10181773
20:00+24ene236684 0.0 101848
10 august, wed
wed1023:00+20wnw117473 0.0 101911
02:00+18n007880 0.1 101911
05:00+17wsw118377 0.4 101911
08:00+21wsw017348 0.0 101968
11:00+26ssw115499 0.0 1019806
14:00+28sw2241100 0.0 10182390
17:00+25n1255100 0.1 1018465
20:00+23ene116418 0.0 101821
11 august, thu
thu1123:00+18w22885 1.4 101822
02:00+18wsw118363 0.0 101811
05:00+16wsw2286100 0.0 101712
08:00+19w2681100 0.0 1018179
11:00+25w4555100 0.0 1017778
14:00+25nw566089 1.6 10171235
17:00+21wnw587195 2.8 1017697
20:00+20nw5105429 0.0 1018507
12 august, fri
fri1223:00+14nnw511792 0.0 1020409
02:00+11nw38940 0.0 1020219
05:00+10nw399737 0.0 1020290
08:00+13nnw498361 0.0 1021368
11:00+18n5754100 0.0 10211015
14:00+21nw4640100 0.0 10201921
17:00+22nw564438 0.0 10191843
20:00+19nw24601 0.0 101971